[[{"header":{"parameterUnit":"m.s-1","parameterCategory":2,"la1":30.2991,"la2":30.254,"lo1":-89.0895,"lo2":-89.0444,"dx":0.0017,"dy":0.0017,"nx":28,"ny":28,"refTime":"2022-11-08T09:00:00:Z","depth":"0","parameterNumber":2,"parameterNumberName":"U-component_of_CURRENTS"},"data":[0,0,0,0,0,0,0,0,0,0,0,0,0,0,0,0,0,0,0,0,0,0,0,0,0,0,0,0,0,0,0,0,0,0,0,0,0,0,0,0,0,0,0,0,0,0,0,0,0,0,0,0,0,0,0,0,0,0,0.2429,0.2429,0,0.2475,0.2475,0.2475,0.2468,0.2468,0.2467,0.2467,0.2476,0.2477,0.2477,0,0,0,0,0,0,0,0,0,0,0,0,0,0.2417,0.2417,0.2428,0.2429,0.243,0.2474,0.2475,0.2475,0.2468,0.2468,0.2467,0.2467,0.2476,0.2476,0.2477,0,0,0,0,0,0,0,0,0,0,0,0,0,0.2436,0.2417,0.2428,0.2434,0.2435,0.2474,0.2475,0.2475,0.2468,0.2468,0.2467,0.2466,0.2475,0.2476,0.2477,0.2499,0,0,0.2481,0.2481,0,0,0,0,0,0,0,0,0.2435,0.2436,0.2433,0.2434,0.2435,0.2467,0.2475,0.2483,0.2469,0.2453,0.2467,0.2466,0.2472,0.2473,0.248,0.25,0.25,0.2481,0.2481,0.2482,0.2482,0,0,0,0,0,0,0,0.2433,0.2434,0.2444,0.2434,0.2435,0.2463,0.2464,0.2476,0.2463,0.2454,0.2455,0.2465,0.2472,0.2479,0.248,0.25,0.2481,0.2482,0.2482,0.2483,0.254,0.2541,0,0,0,0,0,0,0.243,0.2432,0.2442,0.2445,0.2436,0.2464,0.2465,0.2456,0.2464,0.2466,0.2465,0.2464,0.2478,0.2479,0.248,0.2509,0.2482,0.2483,0.2484,0.2539,0.254,0.2541,0,0,0,0,0,0,0.2429,0.2429,0.2441,0.2444,0.2447,0.2464,0.2455,0.2457,0.2462,0.2473,0.2473,0.2468,0.2477,0.2479,0.2489,0.2509,0.2483,0.2484,0.2538,0.2539,0.254,0.2565,0,0,0,0,0,0,0.2428,0.2428,0.2425,0.2443,0.2447,0.2463,0.2456,0.2458,0.2471,0.247,0.2476,0.2476,0.2477,0.2487,0.249,0.251,0.2485,0.2537,0.2538,0.254,0.2563,0.2567,0.257,0,0,0,0,0,0.2427,0.2418,0.2424,0.2426,0.2439,0.2463,0.2468,0.2477,0.2472,0.2477,0.2478,0.2476,0.25,0.2489,0.2492,0.2513,0.2536,0.2538,0.254,0.2561,0.2566,0.257,0,0,0,0,0,0,0.24,0.2418,0.2424,0.2417,0.2442,0.2463,0.2472,0.2479,0.2486,0.2484,0.2484,0.2485,0.2501,0.2504,0.2492,0.2534,0.2519,0.2522,0.2535,0.2539,0.2543,0.2569,0.2486,0,0,0,0,0,0.2397,0.24,0.2423,0.2421,0.2432,0.2454,0.2466,0.2476,0.2487,0.2489,0.2492,0.2501,0.2514,0.2522,0.2531,0.2555,0.2596,0.2572,0.2575,0.2578,0.2602,0.2657,0.2668,0.2547,0.2547,0.2547,0,0,0.2385,0.2399,0.2398,0.2418,0.2436,0.2463,0.2458,0.248,0.2501,0.249,0.2508,0.2511,0.2522,0.2545,0.2554,0.2549,0.2641,0.2581,0.2583,0.2606,0.266,0.2672,0.2683,0.2549,0.2548,0.2548,0,0,0.2384,0.2377,0.2393,0.2415,0.2452,0.2468,0.2475,0.25,0.2506,0.2524,0.2527,0.2544,0.2553,0.2577,0.2587,0.2619,0.2654,0.2619,0.2664,0.2716,0.2727,0.2737,0.2834,0.2852,0.2625,0.2625,0.2625,0,0.2385,0.2395,0.2401,0.2431,0.2457,0.2471,0.2504,0.2515,0.2539,0.256,0.2529,0.2578,0.2573,0.2633,0.2638,0.2629,0.268,0.2643,0.2722,0.2733,0.2743,0.2839,0.2859,0.2626,0.2626,0.2626,0.2626,0,0.24,0.2418,0.2429,0.2472,0.2495,0.2524,0.2549,0.2572,0.2573,0.2592,0.2633,0.263,0.2671,0.2663,0.2656,0.2732,0.2756,0.2716,0.2712,0.2757,0.2856,0.2876,0.2628,0.2628,0.2627,0.2627,0,0,0.2395,0.2437,0.2444,0.248,0.2523,0.2549,0.2586,0.2638,0.2681,0.2681,0.2744,0.2745,0.2756,0.2771,0.2772,0.2807,0.2911,0.2795,0.2797,0.2896,0.3075,0.3167,0.3198,0.2884,0.2887,0.2889,0.3128,0,0.2422,0.2478,0.2492,0.2554,0.259,0.262,0.2658,0.2703,0.2728,0.2787,0.28,0.2848,0.2795,0.2826,0.2853,0.2899,0.2962,0.2854,0.3015,0.3022,0.31,0.3223,0.3091,0.3298,0.3148,0.3151,0.3153,0,0.2444,0.2484,0.2543,0.2615,0.2634,0.2671,0.2756,0.2796,0.2873,0.2896,0.2949,0.2963,0.3042,0.2969,0.3092,0.3028,0.3067,0.3087,0.3096,0.319,0.3151,0.3224,0.3341,0.3257,0.3185,0.3182,0.318,0,0.245,0.2523,0.2573,0.2596,0.2673,0.2714,0.276,0.2833,0.2885,0.2988,0.3046,0.3114,0.3177,0.3217,0.3271,0.3191,0.3416,0.3307,0.3438,0.3446,0.3373,0.3371,0.343,0.3408,0.3407,0.3406,0.3406,0,0.2474,0.2517,0.2582,0.2613,0.2683,0.2736,0.2819,0.2876,0.2978,0.3065,0.3112,0.3212,0.3236,0.3354,0.3364,0.3517,0.3505,0.3506,0.3528,0.3383,0.3378,0.3332,0.3274,0.3415,0.3413,0.3412,0.341,0,0.2465,0.2508,0.2573,0.2658,0.2685,0.2738,0.2842,0.2903,0.3011,0.3138,0.3184,0.3326,0.3503,0.3569,0.3683,0.3672,0.3695,0.3825,0.3691,0.3693,0.3699,0.3647,0.364,0.3526,0.4003,0.4007,0.4011,0,0.2461,0.2495,0.2585,0.2619,0.2657,0.2737,0.2787,0.2901,0.2972,0.3212,0.3279,0.3508,0.364,0.3901,0.396,0.4084,0.3887,0.4017,0.3825,0.3753,0.3709,0.3505,0.339,0.3743,0.3744,0.3745,0.3745,0,0.2453,0.2486,0.253,0.2597,0.2654,0.2719,0.281,0.2867,0.3027,0.3159,0.3368,0.3508,0.3813,0.3905,0.4111,0.4138,0.3833,0.404,0.3962,0.3551,0.333,0.3211,0.3567,0.3752,0.3751,0.375,0.375,0.375,0.243,0.2452,0.2505,0.2565,0.2625,0.268,0.2699,0.2818,0.2939,0.311,0.3331,0.3509,0.3742,0.4023,0.4048,0.4051,0.3958,0.3898,0.3863,0.368,0.3498,0.3931,0.4134,0.4135,0.4136,0.4137,0.4139,0,0.2383,0.2416,0.2469,0.2523,0.2549,0.2611,0.269,0.2694,0.2792,0.301,0.3183,0.3459,0.3607,0.3771,0.3933,0.3852,0.3578,0.3756,0.337,0.3276,0.3676,0.3591,0.3686,0.3686,0.3686,0.3686,0.3686,0.3686,0.2358,0.2376,0.2407,0.2427,0.2462,0.2447,0.2463,0.2505,0.2612,0.2781,0.2948,0.3139,0.3486,0.3743,0.375,0.3657,0.3339,0.3247,0.3211,0.3441,0.3446,0.3451,0.3356,0.34,0.34,0.2614,0.2608,0.2604]},{"header":{"parameterUnit":"m.s-1","parameterCategory":2,"la1":30.2991,"la2":30.254,"lo1":-89.0895,"lo2":-89.0444,"dx":0.0017,"dy":0.0017,"nx":28,"ny":28,"refTime":"2022-11-08T09:00:00:Z","depth":"0","parameterNumber":3,"parameterNumberName":"V-component_of_CURRENTS"},"data":[0,0,0,0,0,0,0,0,0,0,0,0,0,0,0,0,0,0,0,0,0,0,0,0,0,0,0,0,0,0,0,0,0,0,0,0,0,0,0,0,0,0,0,0,0,0,0,0,0,0,0,0,0,0,0,0,0,0,-0.0958,-0.0959,0,-0.1089,-0.109,-0.1092,-0.1199,-0.12,-0.1201,-0.1202,-0.1356,-0.1359,-0.1362,0,0,0,0,0,0,0,0,0,0,0,0,0,-0.0803,-0.0805,-0.0957,-0.0959,-0.096,-0.1089,-0.109,-0.1092,-0.1199,-0.12,-0.1202,-0.1203,-0.1355,-0.1358,-0.1362,0,0,0,0,0,0,0,0,0,0,0,0,0,-0.0897,-0.0806,-0.0957,-0.1028,-0.1036,-0.1088,-0.1091,-0.1093,-0.1199,-0.1201,-0.1202,-0.1203,-0.1353,-0.1358,-0.1363,-0.1362,0,0,-0.1377,-0.1379,0,0,0,0,0,0,0,0,-0.0891,-0.0903,-0.1016,-0.1023,-0.1032,-0.1128,-0.1092,-0.1184,-0.1199,-0.1138,-0.1202,-0.1204,-0.128,-0.129,-0.1314,-0.1369,-0.1376,-0.1378,-0.1381,-0.1383,-0.1384,0,0,0,0,0,0,0,-0.0885,-0.0897,-0.1011,-0.1018,-0.1027,-0.1055,-0.107,-0.111,-0.1201,-0.1144,-0.1152,-0.1164,-0.1285,-0.1309,-0.1318,-0.1378,-0.1378,-0.1382,-0.1385,-0.1386,-0.1475,-0.1475,0,0,0,0,0,0,-0.0864,-0.0891,-0.1007,-0.1015,-0.0962,-0.1056,-0.1073,-0.1097,-0.12,-0.1217,-0.1162,-0.1168,-0.13,-0.1312,-0.1324,-0.1353,-0.1383,-0.1387,-0.139,-0.1476,-0.1475,-0.1475,0,0,0,0,0,0,-0.0861,-0.0874,-0.1001,-0.0954,-0.0972,-0.1057,-0.1083,-0.1099,-0.112,-0.1213,-0.1231,-0.1167,-0.1302,-0.1317,-0.1375,-0.1359,-0.1389,-0.1393,-0.1476,-0.1476,-0.1475,-0.1397,0,0,0,0,0,0,-0.0856,-0.0872,-0.0875,-0.0953,-0.0974,-0.1024,-0.1082,-0.11,-0.1125,-0.1134,-0.1223,-0.1239,-0.1304,-0.1368,-0.138,-0.1366,-0.1397,-0.1477,-0.1476,-0.1475,-0.14,-0.1393,-0.1388,0,0,0,0,0,-0.085,-0.0844,-0.0874,-0.0888,-0.0978,-0.1023,-0.1036,-0.1102,-0.1123,-0.1127,-0.1202,-0.1236,-0.137,-0.1372,-0.1386,-0.1373,-0.1477,-0.1476,-0.1475,-0.1403,-0.1395,-0.1388,0,0,0,0,0,0,-0.0785,-0.0856,-0.0892,-0.0911,-0.096,-0.1041,-0.1043,-0.1084,-0.1144,-0.115,-0.1239,-0.1261,-0.1307,-0.1345,-0.1345,-0.1395,-0.1424,-0.1426,-0.1364,-0.1357,-0.1351,-0.1317,-0.1401,0,0,0,0,0,-0.0769,-0.0791,-0.0857,-0.088,-0.0887,-0.0959,-0.0981,-0.1025,-0.1089,-0.1116,-0.119,-0.1256,-0.1311,-0.1339,-0.1399,-0.1421,-0.1431,-0.1418,-0.1412,-0.1407,-0.1388,-0.141,-0.1404,-0.1471,-0.1471,-0.1471,0,0,-0.0764,-0.0797,-0.0818,-0.0867,-0.0905,-0.092,-0.0976,-0.0998,-0.1026,-0.1121,-0.1177,-0.1241,-0.1315,-0.1359,-0.1379,-0.1389,-0.1387,-0.1405,-0.14,-0.1384,-0.1408,-0.1402,-0.1396,-0.147,-0.1471,-0.1471,0,0,-0.0729,-0.0773,-0.0761,-0.0795,-0.0833,-0.0879,-0.0876,-0.0948,-0.0986,-0.1045,-0.112,-0.1176,-0.1263,-0.1319,-0.1354,-0.1342,-0.136,-0.1348,-0.1286,-0.1307,-0.1301,-0.1297,-0.1272,-0.1265,-0.1338,-0.1338,-0.1338,0,-0.0712,-0.0713,-0.0766,-0.0757,-0.0776,-0.0852,-0.0839,-0.0892,-0.0987,-0.0999,-0.1052,-0.1172,-0.1246,-0.1281,-0.1291,-0.1327,-0.1322,-0.1308,-0.1298,-0.1293,-0.129,-0.1266,-0.126,-0.1334,-0.1335,-0.1335,-0.1335,0,-0.0671,-0.067,-0.066,-0.0685,-0.0713,-0.0715,-0.0786,-0.0814,-0.0869,-0.0927,-0.0979,-0.1093,-0.1152,-0.1188,-0.1244,-0.1245,-0.1241,-0.1292,-0.1311,-0.1278,-0.1255,-0.125,-0.1329,-0.133,-0.1331,-0.1332,0,0,-0.0618,-0.0627,-0.0619,-0.0606,-0.0668,-0.0677,-0.0709,-0.0741,-0.0732,-0.0846,-0.0841,-0.0973,-0.1017,-0.1058,-0.1131,-0.1163,-0.1145,-0.1204,-0.1207,-0.1168,-0.1144,-0.1082,-0.1071,-0.1189,-0.1188,-0.1188,-0.1127,0,-0.0558,-0.0506,-0.0543,-0.0516,-0.049,-0.0567,-0.0586,-0.0635,-0.0689,-0.071,-0.0814,-0.0851,-0.0971,-0.0982,-0.1038,-0.112,-0.1132,-0.1154,-0.1191,-0.1191,-0.1132,-0.1064,-0.1016,-0.0953,-0.1122,-0.1121,-0.1121,0,-0.0479,-0.0456,-0.04,-0.0395,-0.0389,-0.0396,-0.0403,-0.0434,-0.0491,-0.0527,-0.0588,-0.0669,-0.0737,-0.0841,-0.0955,-0.0956,-0.1031,-0.1102,-0.1103,-0.1067,-0.112,-0.1021,-0.0938,-0.1149,-0.1114,-0.1114,-0.1115,0,-0.0372,-0.0345,-0.0289,-0.0298,-0.0319,-0.0296,-0.0311,-0.0359,-0.035,-0.0392,-0.0373,-0.0495,-0.0523,-0.0658,-0.082,-0.0874,-0.092,-0.1019,-0.1026,-0.1021,-0.0998,-0.0992,-0.1115,-0.1072,-0.1072,-0.1072,-0.1073,0,-0.0278,-0.0229,-0.0224,-0.0198,-0.0126,-0.0182,-0.0118,-0.015,-0.0161,-0.0107,-0.0256,-0.0219,-0.0478,-0.0549,-0.0725,-0.0829,-0.0843,-0.0978,-0.0996,-0.0966,-0.0958,-0.1157,-0.1284,-0.107,-0.1071,-0.1071,-0.1072,0,-0.0166,-0.0167,-0.0096,-0.0082,-0.0068,-0.0016,0.0011,0.0057,0.0031,0.0108,0.0112,0.0009,-0.0065,-0.0297,-0.0487,-0.0665,-0.0886,-0.0833,-0.0752,-0.0762,-0.0983,-0.1106,-0.119,-0.1274,-0.0828,-0.0826,-0.0824,0,-0.0105,-0.0055,0.0001,0.0051,0.0068,0.0131,0.0178,0.0159,0.0217,0.0271,0.0336,0.0292,0.0298,0.005,-0.0255,-0.0496,-0.0753,-0.0644,-0.0763,-0.0948,-0.1102,-0.1199,-0.1273,-0.0694,-0.0692,-0.069,-0.0688,0,0.0002,0.0025,0.0077,0.0183,0.0256,0.0333,0.041,0.0488,0.0504,0.0605,0.0741,0.0768,0.0552,0.0341,-0.0018,-0.0235,-0.0768,-0.0605,-0.084,-0.1019,-0.109,-0.1194,-0.0762,-0.0669,-0.0671,-0.0672,-0.0673,-0.0674,0.008,0.0143,0.0214,0.032,0.0409,0.0535,0.0638,0.0743,0.0898,0.1077,0.1076,0.1191,0.0822,0.0361,0.004,-0.0542,-0.059,-0.0761,-0.0891,-0.0969,-0.1066,-0.0552,-0.0464,-0.0465,-0.0466,-0.0466,-0.0467,0,0.0172,0.0238,0.034,0.0474,0.0603,0.0621,0.079,0.0918,0.1156,0.1336,0.1492,0.1434,0.097,0.0423,-0.0325,-0.0764,-0.0981,-0.104,-0.1222,-0.1286,-0.0859,-0.0873,-0.0817,-0.0816,-0.0816,-0.0816,-0.0816,-0.0816,0.0224,0.0339,0.0393,0.0618,0.0722,0.0912,0.1028,0.1234,0.1399,0.1684,0.1807,0.1853,0.1452,0.0074,-0.0934,-0.1191,-0.1531,-0.1556,-0.1756,-0.154,-0.1527,-0.1515,-0.1561,-0.165,-0.1651,-0.2131,-0.2136,-0.214]}],[{"header":{"parameterUnit":"m.s-1","parameterCategory":2,"la1":30.2991,"la2":30.254,"lo1":-89.0895,"lo2":-89.0444,"dx":0.0017,"dy":0.0017,"nx":28,"ny":28,"refTime":"2022-11-08T09:00:00:Z","depth":"2","parameterNumber":2,"parameterNumberName":"U-component_of_CURRENTS"},"data":[0,0,0,0,0,0,0,0,0,0,0,0,0,0,0,0,0,0,0,0,0,0,0,0,0,0,0,0,0,0,0,0,0,0,0,0,0,0,0,0,0,0,0,0,0,0,0,0,0,0,0,0,0,0,0,0,0,0,0.2353,0.2354,0,0.2455,0.2457,0.2458,0.2491,0.249,0.2489,0.2489,0.2508,0.251,0.2511,0,0,0,0,0,0,0,0,0,0,0,0,0,0.2287,0.2287,0.2353,0.2354,0.2355,0.2455,0.2457,0.2458,0.2491,0.249,0.2489,0.2488,0.2508,0.2509,0.2511,0,0,0,0,0,0,0,0,0,0,0,0,0,0.2347,0.2288,0.2352,0.2381,0.2385,0.2455,0.2457,0.2459,0.2491,0.249,0.2489,0.2488,0.2508,0.2509,0.2511,0.2542,0,0,0.2516,0.2517,0,0,0,0,0,0,0,0,0.2343,0.235,0.2376,0.2379,0.2383,0.2457,0.2441,0.2482,0.2491,0.2453,0.2488,0.2487,0.2483,0.2487,0.2513,0.2543,0.2544,0.2517,0.2518,0.2518,0.2519,0,0,0,0,0,0,0,0.2339,0.2346,0.2396,0.2377,0.2382,0.2424,0.2431,0.245,0.2473,0.2456,0.2458,0.2466,0.2484,0.2511,0.2513,0.2544,0.2516,0.2518,0.2519,0.252,0.2599,0.26,0,0,0,0,0,0,0.2318,0.2341,0.2392,0.2398,0.2358,0.2425,0.2433,0.2436,0.2474,0.2479,0.2467,0.2467,0.2508,0.2511,0.2514,0.2592,0.2518,0.252,0.2521,0.2598,0.2599,0.26,0,0,0,0,0,0,0.2316,0.2321,0.2388,0.2371,0.2382,0.2427,0.2431,0.2439,0.2468,0.2483,0.2487,0.2487,0.2508,0.2511,0.2547,0.2591,0.2521,0.2522,0.2597,0.2598,0.26,0.2723,0,0,0,0,0,0,0.2313,0.232,0.2324,0.2369,0.2382,0.243,0.2432,0.2441,0.2473,0.2475,0.2501,0.2502,0.2507,0.2544,0.2549,0.2592,0.2524,0.2595,0.2597,0.2599,0.2718,0.2729,0.2739,0,0,0,0,0,0.2311,0.2308,0.2324,0.233,0.2383,0.243,0.2442,0.2472,0.2475,0.2493,0.2519,0.2502,0.2559,0.2548,0.2552,0.2597,0.2594,0.2597,0.2599,0.2713,0.2727,0.2738,0,0,0,0,0,0,0.2273,0.2312,0.233,0.2338,0.2384,0.2434,0.2454,0.2477,0.2516,0.2516,0.2527,0.2532,0.257,0.2562,0.2549,0.262,0.2569,0.2572,0.2654,0.2667,0.2677,0.2639,0.2525,0,0,0,0,0,0.2269,0.2284,0.2331,0.2341,0.2362,0.2413,0.2438,0.2462,0.2499,0.2516,0.2543,0.2562,0.2586,0.2608,0.2616,0.2671,0.2667,0.2695,0.2705,0.2714,0.2684,0.2745,0.2759,0.2608,0.2608,0.2608,0,0,0.227,0.2282,0.2299,0.2336,0.2374,0.2416,0.2426,0.2466,0.2501,0.251,0.2569,0.2593,0.2601,0.2659,0.2676,0.2662,0.2762,0.2717,0.2726,0.2689,0.2749,0.2764,0.2778,0.261,0.2609,0.2609,0,0,0.2263,0.2279,0.2295,0.2332,0.238,0.2417,0.2428,0.2494,0.2522,0.2583,0.2597,0.2644,0.269,0.2719,0.2733,0.2798,0.2802,0.281,0.2856,0.2919,0.2932,0.2944,0.2994,0.3009,0.2833,0.2833,0.2833,0,0.2257,0.2281,0.231,0.2332,0.2369,0.2417,0.2457,0.2496,0.2568,0.2603,0.2602,0.2702,0.271,0.2789,0.2814,0.2823,0.2858,0.2821,0.2936,0.2946,0.2956,0.3004,0.3019,0.2839,0.2839,0.2838,0.2838,0,0.2274,0.2299,0.231,0.236,0.2402,0.2443,0.2501,0.2551,0.2594,0.2644,0.2726,0.2766,0.2827,0.2852,0.2853,0.2941,0.2945,0.2935,0.2912,0.2979,0.3025,0.3039,0.2848,0.2846,0.2844,0.2843,0,0,0.2246,0.2313,0.2319,0.2355,0.2424,0.2463,0.2522,0.2603,0.2658,0.2729,0.2808,0.2867,0.2908,0.2921,0.2958,0.3012,0.3126,0.3013,0.3014,0.3074,0.3278,0.3212,0.322,0.3164,0.3167,0.3168,0.3297,0,0.2258,0.2303,0.234,0.2411,0.2449,0.2515,0.2576,0.265,0.2716,0.2804,0.2859,0.2934,0.2932,0.2988,0.3046,0.3102,0.3161,0.3091,0.3189,0.3191,0.3135,0.3232,0.2999,0.3088,0.331,0.3312,0.3314,0,0.2263,0.2293,0.2357,0.2448,0.2475,0.2528,0.2644,0.2707,0.2819,0.2874,0.2964,0.3007,0.3106,0.3079,0.3219,0.319,0.3227,0.3259,0.3265,0.3153,0.3147,0.3047,0.3103,0.3335,0.3333,0.3332,0.333,0,0.2232,0.2307,0.236,0.2392,0.25,0.2549,0.262,0.2732,0.2804,0.2922,0.2996,0.3103,0.3188,0.3247,0.3311,0.3288,0.3446,0.3425,0.3396,0.3393,0.3177,0.315,0.3494,0.3494,0.3494,0.3494,0.3493,0,0.2225,0.2267,0.2351,0.2385,0.2466,0.2543,0.2651,0.273,0.2857,0.2948,0.3038,0.3126,0.3237,0.3335,0.3358,0.3431,0.3497,0.3404,0.3425,0.3216,0.3192,0.337,0.3353,0.3498,0.3497,0.3496,0.3496,0,0.2182,0.2241,0.2304,0.2413,0.2452,0.2511,0.2666,0.2734,0.2867,0.2987,0.3028,0.3192,0.3317,0.3405,0.352,0.3507,0.3557,0.3554,0.3296,0.3281,0.3449,0.3438,0.3544,0.3543,0.3542,0.3541,0.354,0,0.217,0.2194,0.2305,0.2346,0.2398,0.2501,0.2567,0.2717,0.2785,0.3009,0.3048,0.3227,0.3298,0.3463,0.3485,0.3535,0.3571,0.3328,0.3211,0.3447,0.3457,0.3447,0.3437,0.2997,0.2992,0.2987,0.2984,0,0.214,0.2177,0.2225,0.23,0.237,0.2451,0.2553,0.2618,0.2785,0.2877,0.3005,0.3082,0.3266,0.3222,0.3309,0.3294,0.3298,0.3244,0.3589,0.301,0.2938,0.2945,0.2953,0.2947,0.2951,0.2953,0.2955,0.2957,0.2108,0.2126,0.2182,0.2249,0.2321,0.2375,0.2399,0.2492,0.2576,0.268,0.2846,0.2888,0.2989,0.2995,0.2941,0.2931,0.314,0.3005,0.3015,0.303,0.2933,0.2862,0.2839,0.2842,0.2844,0.2847,0.2849,0,0.2045,0.2078,0.2133,0.2186,0.2199,0.2286,0.2358,0.2334,0.2352,0.25,0.257,0.2441,0.2452,0.2548,0.2488,0.2515,0.246,0.2409,0.2314,0.2356,0.2392,0.2257,0.1987,0.1984,0.198,0.1977,0,0,0.2015,0.202,0.2046,0.2042,0.2083,0.206,0.2075,0.2049,0.211,0.21,0.2128,0.2346,0.2488,0.2191,0.2189,0.2074,0.2183,0.2,0.2707,0.2638,0.2669,0.2772,0.2618,0,0,0,0,0]},{"header":{"parameterUnit":"m.s-1","parameterCategory":2,"la1":30.2991,"la2":30.254,"lo1":-89.0895,"lo2":-89.0444,"dx":0.0017,"dy":0.0017,"nx":28,"ny":28,"refTime":"2022-11-08T09:00:00:Z","depth":"2","parameterNumber":3,"parameterNumberName":"V-component_of_CURRENTS"},"data":[0,0,0,0,0,0,0,0,0,0,0,0,0,0,0,0,0,0,0,0,0,0,0,0,0,0,0,0,0,0,0,0,0,0,0,0,0,0,0,0,0,0,0,0,0,0,0,0,0,0,0,0,0,0,0,0,0,0,-0.0055,-0.0056,0,-0.0087,-0.0087,-0.0087,-0.0116,-0.0117,-0.0117,-0.0118,-0.0229,-0.0231,-0.0233,0,0,0,0,0,0,0,0,0,0,0,0,0,0.0023,0.0022,-0.0055,-0.0056,-0.0057,-0.0087,-0.0087,-0.0087,-0.0116,-0.0117,-0.0118,-0.0119,-0.0228,-0.0231,-0.0233,0,0,0,0,0,0,0,0,0,0,0,0,0,-0.0005,0.0021,-0.0055,-0.0079,-0.0081,-0.0087,-0.0087,-0.0087,-0.0115,-0.0117,-0.0118,-0.0119,-0.0227,-0.023,-0.0234,-0.0228,0,0,-0.0243,-0.0245,0,0,0,0,0,0,0,0,-0.0004,-0.0007,-0.0074,-0.0077,-0.008,-0.0103,-0.01,-0.014,-0.0115,-0.0097,-0.0118,-0.012,-0.0197,-0.0202,-0.0197,-0.0234,-0.0238,-0.0244,-0.0246,-0.0247,-0.0248,0,0,0,0,0,0,0,-0.0002,-0.0006,-0.0062,-0.0075,-0.0079,-0.0074,-0.0079,-0.0107,-0.0137,-0.0099,-0.0102,-0.0114,-0.0198,-0.0194,-0.02,-0.024,-0.0244,-0.0247,-0.0249,-0.025,-0.0227,-0.0225,0,0,0,0,0,0,-0.0009,-0.0004,-0.0061,-0.0064,-0.005,-0.0075,-0.008,-0.009,-0.0135,-0.0144,-0.0112,-0.0115,-0.0187,-0.0196,-0.0204,-0.0234,-0.0247,-0.025,-0.0252,-0.023,-0.0227,-0.0224,0,0,0,0,0,0,-0.0008,-0.0014,-0.006,-0.0039,-0.0045,-0.0076,-0.0086,-0.009,-0.0111,-0.0145,-0.0155,-0.0133,-0.0189,-0.02,-0.0224,-0.0238,-0.0252,-0.0255,-0.0233,-0.0229,-0.0226,-0.0274,0,0,0,0,0,0,-0.0005,-0.0013,-0.002,-0.004,-0.0047,-0.0065,-0.0086,-0.009,-0.0117,-0.0121,-0.0166,-0.0176,-0.0191,-0.0219,-0.0227,-0.0243,-0.0257,-0.0236,-0.0231,-0.0227,-0.0275,-0.0272,-0.0269,0,0,0,0,0,-0.0002,0.0002,-0.002,-0.0027,-0.0057,-0.0065,-0.0067,-0.0089,-0.0118,-0.0115,-0.014,-0.0175,-0.0193,-0.022,-0.0231,-0.0248,-0.0239,-0.0233,-0.0227,-0.0277,-0.0273,-0.0269,0,0,0,0,0,0,0.0045,-0.0001,-0.0026,-0.0034,-0.0055,-0.0072,-0.0071,-0.0101,-0.0117,-0.0121,-0.0166,-0.0175,-0.0196,-0.0195,-0.0224,-0.0212,-0.0213,-0.0209,-0.0246,-0.0243,-0.024,-0.0194,-0.026,0,0,0,0,0,0.0047,0.0032,-0.0007,-0.0012,-0.0024,-0.0056,-0.0066,-0.0079,-0.01,-0.0109,-0.0131,-0.0145,-0.0172,-0.0191,-0.0191,-0.0207,-0.0213,-0.0207,-0.0204,-0.0202,-0.0162,-0.0195,-0.0194,-0.0205,-0.0205,-0.0206,0,0,0.0078,0.0037,0.0038,-0.0004,-0.0021,-0.0016,-0.0063,-0.0069,-0.0054,-0.0119,-0.0098,-0.0143,-0.0169,-0.0174,-0.0182,-0.0188,-0.0203,-0.0195,-0.0195,-0.0154,-0.0189,-0.0189,-0.0189,-0.0202,-0.0202,-0.0203,0,0,0.0115,0.008,0.0075,0.0062,0.0024,0.0011,0.0,-0.0017,-0.0017,-0.0008,-0.0057,-0.0088,-0.0108,-0.0129,-0.0149,-0.0118,-0.0185,-0.014,-0.0107,-0.0142,-0.0143,-0.0144,-0.0179,-0.0182,-0.0143,-0.0144,-0.0144,0,0.0133,0.0128,0.0079,0.0071,0.0068,0.002,0.0033,0.0038,0.0024,0.0015,0.0013,-0.0043,-0.0064,-0.0122,-0.0101,-0.0116,-0.0161,-0.0145,-0.0146,-0.0146,-0.0146,-0.0181,-0.0185,-0.0145,-0.0145,-0.0145,-0.0145,0,0.0167,0.0169,0.0171,0.0142,0.0137,0.0147,0.0134,0.0135,0.0122,0.0113,0.0077,0.0045,0.0009,-0.0018,-0.0054,-0.0088,-0.0131,-0.015,-0.0176,-0.0149,-0.0186,-0.0189,-0.0147,-0.0147,-0.0146,-0.0146,0,0,0.0178,0.0188,0.0187,0.0199,0.0176,0.018,0.0199,0.0188,0.0192,0.0177,0.0173,0.0123,0.0072,0.0054,-0.0026,-0.0054,-0.0101,-0.0108,-0.011,-0.0176,-0.021,-0.0225,-0.023,-0.017,-0.0169,-0.0169,-0.0249,0,0.0207,0.0231,0.022,0.0268,0.0288,0.0258,0.0281,0.0269,0.0263,0.0265,0.0194,0.0175,0.0104,0.0062,0.0017,-0.0066,-0.0105,-0.0077,-0.019,-0.0192,-0.0239,-0.0231,-0.021,-0.0279,-0.0252,-0.0252,-0.0253,0,0.0233,0.0247,0.0296,0.0333,0.0334,0.0355,0.0357,0.0377,0.0351,0.0341,0.0278,0.0226,0.0157,0.0124,-0.0015,-0.0019,-0.0095,-0.0154,-0.016,-0.0145,-0.021,-0.0288,-0.0285,-0.0257,-0.0257,-0.0256,-0.0256,0,0.0267,0.0302,0.0344,0.0359,0.0387,0.0396,0.0404,0.0392,0.0422,0.0384,0.0398,0.0277,0.0257,0.0125,0.0012,-0.0024,-0.0116,-0.0176,-0.0263,-0.0267,-0.0242,-0.0243,-0.0238,-0.0238,-0.0237,-0.0237,-0.0237,0,0.0301,0.0339,0.037,0.04,0.0454,0.0448,0.0497,0.0484,0.0493,0.0542,0.0437,0.045,0.026,0.0179,0.0037,-0.0112,-0.0102,-0.0236,-0.028,-0.0258,-0.0259,-0.0219,-0.0216,-0.024,-0.0239,-0.0239,-0.0238,0,0.0343,0.0359,0.0422,0.0461,0.0481,0.0519,0.0577,0.0617,0.0605,0.0669,0.0662,0.0585,0.0463,0.0276,0.0096,-0.0046,-0.02,-0.0249,-0.0208,-0.0245,-0.0345,-0.0342,-0.0381,-0.0383,-0.0383,-0.0384,-0.0385,0,0.037,0.0407,0.0478,0.0525,0.0548,0.0609,0.066,0.0671,0.0732,0.0765,0.0812,0.0717,0.0666,0.0378,0.0109,-0.016,-0.0182,-0.0304,-0.0341,-0.0316,-0.0356,-0.0352,-0.0348,-0.0346,-0.0346,-0.0346,-0.0346,0,0.0428,0.0448,0.0501,0.0604,0.067,0.0752,0.0832,0.0899,0.0934,0.098,0.1035,0.0993,0.0723,0.0453,0.0091,-0.009,-0.0272,-0.0317,-0.0296,-0.0305,-0.0287,-0.0324,-0.0321,-0.0348,-0.0348,-0.0348,-0.0348,-0.0348,0.0474,0.0522,0.0596,0.0692,0.0778,0.0894,0.0973,0.1061,0.1161,0.1234,0.1201,0.1141,0.084,0.0364,0.0052,-0.0279,-0.0277,-0.0397,-0.0395,-0.0393,-0.0366,-0.035,-0.0419,-0.0419,-0.0419,-0.0419,-0.0419,0,0.0537,0.0592,0.0685,0.0802,0.0906,0.094,0.109,0.1163,0.129,0.1337,0.1352,0.108,0.0768,0.0424,-0.0069,-0.0367,-0.0396,-0.0457,-0.0425,-0.0421,-0.0418,-0.0392,-0.0452,-0.0453,-0.0454,-0.0455,0,0,0.0576,0.0669,0.0716,0.0893,0.0979,0.1124,0.1215,0.1314,0.1378,0.1413,0.1377,0.1285,0.0876,0.0524,0.0115,-0.0166,-0.0227,-0.0227,-0.0171,-0.0081,-0.0075,-0.0356,-0.0308,0,0,0,0,0]}],[{"header":{"parameterUnit":"m.s-1","parameterCategory":2,"la1":30.2991,"la2":30.254,"lo1":-89.0895,"lo2":-89.0444,"dx":0.0017,"dy":0.0017,"nx":28,"ny":28,"refTime":"2022-11-08T09:00:00:Z","depth":"4","parameterNumber":2,"parameterNumberName":"U-component_of_CURRENTS"},"data":[0,0,0,0,0,0,0,0,0,0,0,0,0,0,0,0,0,0,0,0,0,0,0,0,0,0,0,0,0,0,0,0,0,0,0,0,0,0,0,0,0,0,0,0,0,0,0,0,0,0,0,0,0,0,0,0,0,0,0.1287,0.1288,0,0.1354,0.1354,0.1355,0.1413,0.1414,0.1415,0.1416,0.1518,0.1519,0.1521,0,0,0,0,0,0,0,0,0,0,0,0,0,0.1175,0.1177,0.1287,0.1288,0.1289,0.1354,0.1354,0.1355,0.1413,0.1414,0.1415,0.1416,0.1517,0.1519,0.1521,0,0,0,0,0,0,0,0,0,0,0,0,0,0.1228,0.1177,0.1287,0.1328,0.1332,0.1354,0.1354,0.1355,0.1412,0.1414,0.1415,0.1417,0.1516,0.1519,0.1522,0.1512,0,0,0.153,0.1532,0,0,0,0,0,0,0,0,0.1225,0.1232,0.1321,0.1325,0.133,0.1379,0.1353,0.141,0.1412,0.1379,0.1416,0.1417,0.1475,0.1482,0.1487,0.1516,0.1521,0.1531,0.1532,0.1533,0.1534,0,0,0,0,0,0,0,0.1221,0.1229,0.1311,0.1322,0.1328,0.1331,0.134,0.1363,0.1417,0.1382,0.1387,0.1399,0.1478,0.1484,0.149,0.1522,0.153,0.1533,0.1535,0.1536,0.1653,0.1654,0,0,0,0,0,0,0.1219,0.1226,0.1308,0.1313,0.1283,0.1333,0.1343,0.136,0.1416,0.1427,0.1397,0.1401,0.1478,0.1486,0.1493,0.1577,0.1533,0.1536,0.1538,0.1652,0.1653,0.1655,0,0,0,0,0,0,0.1217,0.1226,0.1306,0.1273,0.1284,0.1334,0.1352,0.136,0.1398,0.1428,0.1439,0.1431,0.148,0.149,0.1543,0.1578,0.1537,0.154,0.165,0.1652,0.1654,0.1685,0,0,0,0,0,0,0.1213,0.1225,0.1247,0.1273,0.1286,0.134,0.1351,0.1361,0.1402,0.1409,0.146,0.1469,0.1481,0.1539,0.1546,0.1581,0.1542,0.1648,0.1651,0.1653,0.1683,0.1688,0.1693,0,0,0,0,0,0.1209,0.1228,0.1248,0.1259,0.1311,0.1341,0.1348,0.1385,0.1403,0.1423,0.1461,0.1469,0.1561,0.1542,0.155,0.1587,0.1647,0.165,0.1653,0.168,0.1687,0.1693,0,0,0,0,0,0,0.1195,0.1237,0.1259,0.1293,0.1327,0.1353,0.1378,0.1399,0.1442,0.146,0.1483,0.1494,0.1559,0.1565,0.1543,0.1629,0.1607,0.1612,0.1625,0.1632,0.1637,0.1653,0.1544,0,0,0,0,0,0.1201,0.1229,0.1267,0.1298,0.1316,0.1352,0.1373,0.1402,0.1437,0.1458,0.1496,0.1536,0.1571,0.1596,0.163,0.1669,0.1687,0.17,0.1706,0.171,0.1729,0.1769,0.1779,0.1665,0.1665,0.1665,0,0,0.12,0.1233,0.1247,0.1298,0.1327,0.1356,0.1369,0.1413,0.1449,0.1462,0.1532,0.1562,0.1588,0.1641,0.1669,0.1654,0.1753,0.1714,0.1718,0.1735,0.1773,0.1784,0.1794,0.1668,0.1667,0.1667,0,0,0.121,0.1248,0.1274,0.1302,0.1357,0.138,0.1399,0.1448,0.1486,0.1543,0.1567,0.1621,0.1671,0.1702,0.1718,0.1772,0.1784,0.1785,0.1822,0.1859,0.1869,0.1877,0.1918,0.193,0.1782,0.1782,0.1782,0,0.1212,0.1253,0.1285,0.1318,0.1348,0.1392,0.1426,0.1462,0.1528,0.1565,0.1576,0.1676,0.1702,0.176,0.1785,0.1787,0.1809,0.1791,0.1866,0.1875,0.1883,0.1922,0.1935,0.1784,0.1783,0.1783,0.1783,0,0.1231,0.1275,0.1293,0.135,0.1384,0.1422,0.1473,0.1525,0.1575,0.1615,0.1704,0.1742,0.1801,0.1816,0.182,0.1895,0.1893,0.187,0.1846,0.1896,0.1935,0.1948,0.1786,0.1786,0.1785,0.1785,0,0,0.121,0.129,0.1302,0.1336,0.1408,0.1435,0.1502,0.1573,0.1627,0.1696,0.177,0.1836,0.1871,0.1893,0.191,0.1946,0.2026,0.194,0.1941,0.1976,0.212,0.2,0.2003,0.2013,0.2016,0.2018,0.2124,0,0.1222,0.1284,0.1325,0.1387,0.1422,0.1481,0.1533,0.1604,0.1679,0.1761,0.1819,0.1901,0.1893,0.1941,0.1973,0.2024,0.2062,0.2,0.2071,0.2073,0.1957,0.2014,0.2025,0.2133,0.2136,0.2138,0.214,0,0.1229,0.1275,0.1338,0.1415,0.1436,0.148,0.1584,0.164,0.1752,0.1812,0.1898,0.1958,0.205,0.2027,0.213,0.2092,0.2118,0.2141,0.2145,0.2033,0.1977,0.2073,0.2163,0.2161,0.2159,0.2158,0.2156,0,0.1197,0.1283,0.1338,0.1363,0.1452,0.1502,0.1559,0.1666,0.1729,0.187,0.1946,0.2037,0.2114,0.2159,0.222,0.219,0.2318,0.2273,0.2188,0.218,0.2241,0.2231,0.2341,0.2341,0.2341,0.2341,0.234,0,0.1183,0.1229,0.1333,0.1357,0.1423,0.1497,0.159,0.1656,0.1776,0.1855,0.198,0.2058,0.2154,0.2237,0.2259,0.2269,0.235,0.2217,0.2203,0.2252,0.2242,0.2251,0.2239,0.2344,0.2344,0.2343,0.2342,0,0.1134,0.1204,0.1266,0.1372,0.141,0.1461,0.1592,0.1647,0.1784,0.1899,0.1957,0.2105,0.2215,0.2295,0.2383,0.2315,0.2342,0.2321,0.2398,0.2384,0.2171,0.216,0.2237,0.2233,0.2231,0.2228,0.2226,0,0.1112,0.1144,0.1262,0.1297,0.1351,0.1447,0.1499,0.1632,0.1696,0.1908,0.1943,0.2119,0.2206,0.2245,0.2318,0.2362,0.2327,0.232,0.2219,0.2183,0.2163,0.2156,0.2148,0.2222,0.2221,0.222,0.222,0,0.1064,0.112,0.117,0.1242,0.1308,0.1374,0.147,0.1504,0.166,0.1808,0.1909,0.1993,0.2108,0.217,0.2226,0.2242,0.2312,0.2291,0.2295,0.22,0.2166,0.2147,0.2143,0.221,0.2212,0.2212,0.2213,0,0.1031,0.1049,0.112,0.1175,0.1245,0.1274,0.1341,0.1424,0.1506,0.1728,0.1753,0.1944,0.208,0.211,0.2159,0.2175,0.2134,0.2046,0.2062,0.2074,0.197,0.19,0.1868,0,0,0,0,0,0.0989,0.1003,0.1042,0.1095,0.1157,0.1202,0.13,0.1372,0.153,0.1555,0.1652,0.176,0.1861,0.195,0.1935,0.2079,0.2131,0.2051,0.2034,0.2157,0.2168,0.2059,0,0,0,0,0,0,0.0962,0.1003,0.1012,0.1019,0.1039,0.11,0.1156,0.1261,0.1286,0.1456,0.1521,0.166,0.1781,0.1865,0.1909,0.1934,0.1887,0.2162,0.2158,0.2151,0.2161,0.217,0.2061,0,0,0,0,0]},{"header":{"parameterUnit":"m.s-1","parameterCategory":2,"la1":30.2991,"la2":30.254,"lo1":-89.0895,"lo2":-89.0444,"dx":0.0017,"dy":0.0017,"nx":28,"ny":28,"refTime":"2022-11-08T09:00:00:Z","depth":"4","parameterNumber":3,"parameterNumberName":"V-component_of_CURRENTS"},"data":[0,0,0,0,0,0,0,0,0,0,0,0,0,0,0,0,0,0,0,0,0,0,0,0,0,0,0,0,0,0,0,0,0,0,0,0,0,0,0,0,0,0,0,0,0,0,0,0,0,0,0,0,0,0,0,0,0,0,0.0296,0.0296,0,0.0269,0.0269,0.0269,0.026,0.026,0.026,0.026,0.0203,0.0201,0.02,0,0,0,0,0,0,0,0,0,0,0,0,0,0.0303,0.0303,0.0296,0.0296,0.0295,0.0269,0.0269,0.0269,0.026,0.026,0.026,0.026,0.0203,0.0201,0.02,0,0,0,0,0,0,0,0,0,0,0,0,0,0.0291,0.0303,0.0296,0.0287,0.0286,0.0269,0.0269,0.0269,0.026,0.026,0.026,0.026,0.0204,0.0202,0.0199,0.0184,0,0,0.0192,0.0191,0,0,0,0,0,0,0,0,0.0292,0.0291,0.0289,0.0288,0.0286,0.0267,0.025,0.0239,0.026,0.0271,0.026,0.026,0.0221,0.0217,0.0214,0.0182,0.0179,0.0192,0.0191,0.019,0.0189,0,0,0,0,0,0,0,0.0293,0.0292,0.0287,0.0288,0.0287,0.0271,0.027,0.0248,0.0246,0.027,0.0269,0.0264,0.022,0.0216,0.0212,0.0178,0.0192,0.019,0.0189,0.0188,0.0141,0.0141,0,0,0,0,0,0,0.0296,0.0293,0.0287,0.0286,0.0288,0.0271,0.027,0.0274,0.0247,0.0243,0.0264,0.0264,0.022,0.0215,0.021,0.0212,0.019,0.0187,0.0186,0.0141,0.0141,0.0141,0,0,0,0,0,0,0.0296,0.0296,0.0288,0.0287,0.0285,0.0271,0.0276,0.0273,0.0272,0.0243,0.0238,0.0266,0.022,0.0213,0.0199,0.0208,0.0186,0.0184,0.014,0.0141,0.0141,0.0201,0,0,0,0,0,0,0.0297,0.0297,0.0301,0.0288,0.0285,0.0281,0.0275,0.0273,0.0269,0.0268,0.0242,0.0237,0.0219,0.0203,0.0197,0.0205,0.0183,0.014,0.0141,0.0141,0.0198,0.0203,0.0207,0,0,0,0,0,0.0297,0.0305,0.0301,0.03,0.0292,0.0281,0.0278,0.0269,0.0269,0.0268,0.0257,0.0238,0.02,0.0201,0.0194,0.0202,0.014,0.014,0.0141,0.0197,0.0202,0.0206,0,0,0,0,0,0,0.0308,0.0304,0.03,0.0306,0.0294,0.0279,0.0277,0.0272,0.0263,0.0264,0.024,0.0234,0.0224,0.0202,0.0204,0.0188,0.0166,0.0165,0.0211,0.0216,0.022,0.0234,0.0181,0,0,0,0,0,0.0312,0.032,0.0306,0.0311,0.0306,0.0292,0.0287,0.0281,0.027,0.0267,0.0252,0.0234,0.0219,0.021,0.019,0.0181,0.0147,0.018,0.0184,0.0188,0.0194,0.0155,0.0156,0.0142,0.0142,0.0142,0,0,0.0323,0.0316,0.0324,0.0314,0.0305,0.0308,0.029,0.0285,0.0294,0.0261,0.0269,0.0246,0.0219,0.0212,0.0206,0.0197,0.0171,0.0188,0.0192,0.0196,0.0155,0.0157,0.0158,0.0142,0.0142,0.0142,0,0,0.0337,0.0336,0.0344,0.0338,0.0323,0.0319,0.0319,0.0308,0.0307,0.0305,0.0288,0.0273,0.0249,0.0236,0.0225,0.0237,0.0193,0.0228,0.0263,0.0225,0.0226,0.0227,0.0176,0.0172,0.0232,0.0232,0.0232,0,0.0347,0.0354,0.0343,0.0343,0.0347,0.0328,0.0339,0.0336,0.0324,0.0325,0.0314,0.0286,0.0262,0.0258,0.0266,0.0247,0.0213,0.025,0.0231,0.0231,0.0231,0.0179,0.0173,0.0235,0.0235,0.0234,0.0234,0,0.0362,0.037,0.0372,0.0376,0.0379,0.0382,0.0379,0.0381,0.0378,0.0372,0.0365,0.0334,0.0317,0.0307,0.0292,0.0282,0.0254,0.024,0.0222,0.0236,0.018,0.0173,0.0239,0.0238,0.0237,0.0237,0,0,0.0377,0.0385,0.0385,0.0397,0.0398,0.0404,0.0421,0.0427,0.0439,0.0422,0.0429,0.0405,0.0385,0.0371,0.0345,0.0318,0.0283,0.0286,0.0282,0.0241,0.0188,0.0148,0.0136,0.0267,0.0266,0.0265,0.0147,0,0.039,0.0406,0.041,0.044,0.045,0.0452,0.0474,0.048,0.0473,0.0474,0.0443,0.0435,0.041,0.0401,0.0372,0.0304,0.0269,0.0315,0.0175,0.0171,0.0139,0.0128,0.0264,0.0141,0.014,0.0138,0.0137,0,0.0394,0.0409,0.044,0.0476,0.0483,0.0506,0.0535,0.0553,0.0548,0.0538,0.0522,0.0491,0.0456,0.0429,0.0324,0.0354,0.0279,0.0223,0.0217,0.0156,0.0119,0.0125,0.0124,0.0125,0.0126,0.0127,0.0128,0,0.0399,0.0428,0.046,0.0471,0.0509,0.0533,0.056,0.0573,0.0596,0.0579,0.0577,0.0526,0.0496,0.0408,0.0294,0.0306,0.0163,0.0158,0.0049,0.0045,0.0091,0.0092,0.0079,0.008,0.008,0.008,0.008,0,0.0402,0.0426,0.0468,0.0486,0.0541,0.056,0.0613,0.0622,0.064,0.0664,0.0616,0.0602,0.049,0.0398,0.0296,0.0144,0.0156,0.0049,0.0013,0.0117,0.0122,0.0085,0.0087,0.0076,0.0077,0.0078,0.0078,0,0.0395,0.0417,0.0461,0.0517,0.0543,0.0585,0.0662,0.0695,0.0701,0.0724,0.0721,0.0651,0.0523,0.0393,0.0229,0.0139,0.0002,-0.0056,0.005,0.0023,-0.0092,-0.0086,-0.0187,-0.019,-0.0192,-0.0194,-0.0195,0,0.0393,0.0413,0.049,0.053,0.0561,0.063,0.0683,0.0723,0.0757,0.075,0.0758,0.0648,0.058,0.0321,0.0176,-0.0045,-0.0069,-0.0149,-0.0103,-0.0094,-0.0119,-0.0109,-0.01,-0.0198,-0.0199,-0.0199,-0.02,0,0.0399,0.0427,0.0471,0.0551,0.0616,0.069,0.0762,0.0787,0.0825,0.083,0.0778,0.065,0.0495,0.0308,0.0124,-0.0025,-0.0099,-0.017,-0.0166,-0.0123,-0.0108,-0.0129,-0.0118,-0.0207,-0.0206,-0.0205,-0.0205,0,0.0413,0.0442,0.0503,0.0574,0.0654,0.0723,0.0763,0.0801,0.0835,0.0827,0.0802,0.0649,0.0565,0.0315,0.0152,-0.001,-0.0041,-0.008,-0.0082,-0.0076,-0.0006,0.0033,-0.0059,0,0,0,0,0,0.0424,0.0458,0.0523,0.0601,0.0679,0.0729,0.0806,0.0838,0.0867,0.0838,0.0825,0.0684,0.0435,0.0329,0.016,0.0104,-0.0079,-0.0101,-0.0127,-0.0245,-0.0237,-0.0177,0,0,0,0,0,0,0.0434,0.0489,0.0519,0.0611,0.0667,0.0757,0.0806,0.0829,0.0814,0.0815,0.0689,0.0637,0.0398,0.0533,0.0156,0.0106,0.0064,-0.0211,-0.0215,-0.025,-0.0243,-0.0236,-0.0171,0,0,0,0,0]}]]